Weather in Bubnovo

Russia / Smolensk Oblast     54°42′05″N   32°14′40″E
temp.,
°C
wind,
m/s
gust,
m/s
humid.,
%
clouds,
%
prec.,
mm/h
press.,
hPa
HPBL,
m
19 june, sat
sat1900:00+15sse38890 0.0 1025130
03:00+14s35920 0.0 102667
06:00+15sse23910 0.0 102589
09:00+20sse33760 0.0 1025413
12:00+23sse34640 0.0 10251043
15:00+24s34620 0.0 10241148
18:00+24s24690 0.0 1023950
21:00+20se12780 0.0 102211
20 june, sun
sun2000:00+17se22871 0.0 102312
03:00+16se23930 0.0 102336
06:00+18sse24940 0.0 1023119
09:00+22sse34800 0.0 1022474
12:00+25sse34670 0.0 10221060
15:00+26s346143 0.0 10211169
18:00+25ssw247169 0.0 1020480
21:00+21ese1179100 0.0 102011
21 june, mon
mon2100:00+18s2389100 0.0 102030
03:00+17ese3391100 0.0 102039
06:00+17ese3690100 0.0 1020144
09:00+21ese4777100 0.0 1019422
12:00+25ese57595 0.0 1019949
15:00+28ese57585 0.0 10171120
18:00+27ese4870100 0.0 1017431
21:00+22ese49875 0.0 1017157
22 june, tue
tue2200:00+19se411945 0.0 1018216
03:00+17ese379649 0.0 1018126
06:00+18ese3994100 0.0 1018224
09:00+23se587415 0.0 1018453
12:00+27se586051 0.0 10171040
15:00+29sse59605 0.0 10171285
18:00+27sse5106855 0.0 1017455
21:00+23se4108121 0.0 1018164
23 june, wed
wed2300:00+20se36925 0.0 101997
03:00+20ese369621 0.0 102094
06:00+20ese37965 0.0 1020188
09:00+25se477796 0.0 1020471
12:00+29se586387 0.0 10201199
15:00+31se465550 0.0 10191587
18:00+29e4867100 0.0 1019314
21:00+24ese5127673 0.0 1019259